Weather History for Flag Island, MN

Change the Weather History Date:

Sunday, September 15, 2013

  Actual Average Record
Temperature  
Mean Temperature 52 °F -  
Max Temperature 57 °F 60 °F 78 °F (2006)
Min Temperature 48 °F 48 °F 37 °F (2011)
Degree Days  
Heating Degree Days 12    
Growing Degree Days 2 (Base 50)    
Moisture  
Dew Point 39 °F    
Average Humidity 62    
Maximum Humidity 76    
Minimum Humidity 44    
Precipitation  
Precipitation 0.00 in - - ()
Sea Level Pressure  
Sea Level Pressure 30.23 in    
Wind  
Wind Speed 11 mph (NE)    
Max Wind Speed 17 mph    
Max Gust Speed 22 mph    
Visibility 10 miles    
Events      
Averages and records for this station are not official NWS values.
T = Trace of Precipitation, MM = Missing Value Source: NWS Daily Summary

Daily Weather History Graph

Daily Weather History Graph

Search for Another Location

Airport:

Trip Planner

Search our weather history database for the weather conditions in past years. The results will help you decide how hot, cold, wet, or windy it might be!

Date:

Astronomy

Sep. 15, 2013 Rise Set
Actual Time 6:56 AM CDT 7:32 PM CDT
Civil Twilight 6:24 AM CDT 8:04 PM CDT
Nautical Twilight 5:46 AM CDT 8:42 PM CDT
Astronomical Twilight 5:05 AM CDT 9:21 PM CDT
Moon 5:15 PM CDT (9/15) 2:16 AM CDT (9/15)
Length of Visible Light 13h 39m
Length of Day
12h 35m
Waxing Gibbous, 82% of the Moon is Illuminated
Sep 15
Waxing Gibbous
Sep 19
Full
Sep 26
Last Quarter
Oct 4
New
Oct 11
First Quarter

Hourly Weather History & Observations

Time (CDT) Temp. Dew Point Humidity Pressure Visibility Wind Dir Wind Speed Gust Speed Precip Events Conditions
12:14 AM 55.4 °F 46.4 °F 72% 30.02 in 10.0 mi NE 17.3 mph 21.9 mph N/A   Scattered Clouds
12:33 AM 55.4 °F 46.4 °F 72% 30.03 in 10.0 mi NE 15.0 mph 21.9 mph N/A   Clear
12:53 AM 53.6 °F 44.6 °F 72% 30.04 in 10.0 mi NE 17.3 mph 20.7 mph N/A   Clear
1:14 AM 53.6 °F 44.6 °F 72% 30.05 in 10.0 mi NE 16.1 mph - N/A   Clear
1:33 AM 53.6 °F 44.6 °F 72% 30.05 in 10.0 mi NE 13.8 mph - N/A   Clear
1:54 AM 51.8 °F 44.6 °F 76% 30.06 in 10.0 mi NE 13.8 mph 19.6 mph N/A   Clear
2:13 AM 51.8 °F 42.8 °F 71% 30.07 in 10.0 mi NE 15.0 mph 20.7 mph N/A   Clear
2:33 AM 51.8 °F 42.8 °F 71% 30.08 in 10.0 mi NE 15.0 mph 20.7 mph N/A   Clear
2:54 AM 51.8 °F 42.8 °F 71% 30.08 in 10.0 mi NE 15.0 mph 18.4 mph N/A   Scattered Clouds
3:13 AM 50.0 °F 42.8 °F 76% 30.09 in 10.0 mi NE 13.8 mph - N/A   Scattered Clouds
3:33 AM 50.0 °F 42.8 °F 76% 30.09 in 10.0 mi NE 12.7 mph - N/A   Scattered Clouds
3:54 AM 50.0 °F 42.8 °F 76% 30.10 in 10.0 mi NE 11.5 mph 19.6 mph N/A   Scattered Clouds
4:13 AM 50.0 °F 41.0 °F 71% 30.11 in 10.0 mi NE 13.8 mph 18.4 mph N/A   Scattered Clouds
4:33 AM 48.2 °F 41.0 °F 76% 30.12 in 10.0 mi NE 15.0 mph - N/A   Scattered Clouds
4:54 AM 48.2 °F 41.0 °F 76% 30.13 in 10.0 mi NE 16.1 mph 19.6 mph N/A   Mostly Cloudy
5:13 AM 48.2 °F 39.2 °F 71% 30.14 in 10.0 mi NE 15.0 mph - N/A   Mostly Cloudy
5:33 AM 48.2 °F 39.2 °F 71% 30.15 in 10.0 mi NE 15.0 mph - N/A   Scattered Clouds
5:54 AM 48.2 °F 39.2 °F 71% 30.16 in 10.0 mi NE 13.8 mph - N/A   Mostly Cloudy
6:13 AM 48.2 °F 39.2 °F 71% 30.17 in 10.0 mi NE 16.1 mph - N/A   Mostly Cloudy
6:33 AM 48.2 °F 39.2 °F 71% 30.17 in 10.0 mi NE 12.7 mph - N/A   Mostly Cloudy
6:54 AM 48.2 °F 37.4 °F 66% 30.18 in 10.0 mi ENE 13.8 mph - N/A   Mostly Cloudy
7:13 AM 48.2 °F 37.4 °F 66% 30.19 in 10.0 mi ENE 13.8 mph - N/A   Overcast
7:33 AM 48.2 °F 39.2 °F 71% 30.20 in 10.0 mi ENE 6.9 mph - N/A   Overcast
7:54 AM 48.2 °F 37.4 °F 66% 30.20 in 10.0 mi ENE 11.5 mph 18.4 mph N/A   Overcast
8:13 AM 48.2 °F 37.4 °F 66% 30.21 in 10.0 mi NE 10.4 mph - N/A   Scattered Clouds
8:33 AM 48.2 °F 37.4 °F 66% 30.22 in 10.0 mi NNE 13.8 mph - N/A   Mostly Cloudy
8:54 AM 48.2 °F 39.2 °F 71% 30.22 in 10.0 mi NNE 9.2 mph - N/A   Overcast
9:13 AM 48.2 °F 37.4 °F 66% 30.23 in 10.0 mi NE 12.7 mph - N/A   Overcast
9:33 AM 48.2 °F 39.2 °F 71% 30.24 in 10.0 mi NE 8.1 mph - N/A   Scattered Clouds
9:54 AM 48.2 °F 39.2 °F 71% 30.25 in 10.0 mi NNE 9.2 mph - N/A   Scattered Clouds
10:13 AM 50.0 °F 39.2 °F 66% 30.26 in 10.0 mi NNE 9.2 mph - N/A   Mostly Cloudy
10:33 AM 50.0 °F 39.2 °F 66% 30.27 in 10.0 mi NNE 10.4 mph - N/A   Mostly Cloudy
10:54 AM 50.0 °F 39.2 °F 66% 30.28 in 10.0 mi NNE 9.2 mph 12.7 mph N/A   Scattered Clouds
11:13 AM 50.0 °F 39.2 °F 66% 30.28 in 10.0 mi NNE 9.2 mph - N/A   Clear
11:33 AM 51.8 °F 39.2 °F 62% 30.28 in 10.0 mi NNE 8.1 mph - N/A   Clear
11:54 AM 51.8 °F 39.2 °F 62% 30.29 in 10.0 mi NNE 10.4 mph - N/A   Clear
12:13 PM 51.8 °F 39.2 °F 62% 30.29 in 10.0 mi North 10.4 mph - N/A   Clear
12:33 PM 51.8 °F 39.2 °F 62% 30.29 in 10.0 mi NNE 8.1 mph - N/A   Clear
12:54 PM 51.8 °F 39.2 °F 62% 30.29 in 10.0 mi North 9.2 mph - N/A   Clear
1:13 PM 51.8 °F 39.2 °F 62% 30.30 in 10.0 mi North 6.9 mph - N/A   Clear
1:33 PM 53.6 °F 39.2 °F 58% 30.30 in 10.0 mi NNE 8.1 mph - N/A   Clear
1:53 PM 53.6 °F 35.6 °F 51% 30.30 in 10.0 mi North 9.2 mph - N/A   Clear
2:13 PM 53.6 °F 35.6 °F 51% 30.30 in 10.0 mi North 6.9 mph - N/A   Clear
2:33 PM 53.6 °F 35.6 °F 51% 30.30 in 10.0 mi North 8.1 mph - N/A   Clear
2:54 PM 53.6 °F 35.6 °F 51% 30.30 in 10.0 mi North 3.5 mph - N/A   Clear
3:13 PM 55.4 °F 35.6 °F 47% 30.30 in 10.0 mi North 4.6 mph - N/A   Clear
3:32 PM 55.4 °F 35.6 °F 47% 30.30 in 10.0 mi NNE 5.8 mph - N/A   Clear
3:53 PM 55.4 °F 35.6 °F 47% 30.30 in 10.0 mi Calm Calm - N/A   Clear
4:13 PM 55.4 °F 35.6 °F 47% 30.30 in 10.0 mi NNE 4.6 mph - N/A   Clear
4:33 PM 55.4 °F 37.4 °F 51% 30.30 in 10.0 mi NE 3.5 mph - N/A   Clear
4:53 PM 57.2 °F 37.4 °F 48% 30.30 in 10.0 mi North 4.6 mph - N/A   Clear
5:13 PM 57.2 °F 37.4 °F 48% 30.30 in 10.0 mi NNE 5.8 mph - N/A   Clear
5:33 PM 57.2 °F 37.4 °F 48% 30.30 in 10.0 mi NNE 4.6 mph - N/A   Clear
5:53 PM 57.2 °F 35.6 °F 44% 30.30 in 10.0 mi Calm Calm - N/A   Clear
6:13 PM 57.2 °F 35.6 °F 44% 30.30 in 10.0 mi NE 5.8 mph - N/A   Clear
6:33 PM 57.2 °F 35.6 °F 44% 30.30 in 10.0 mi NNE 5.8 mph - N/A   Clear
6:53 PM 57.2 °F 35.6 °F 44% 30.30 in 10.0 mi Calm Calm - N/A   Clear
7:13 PM 55.4 °F 35.6 °F 47% 30.30 in 10.0 mi ENE 3.5 mph - N/A   Clear
7:33 PM 53.6 °F 33.8 °F 47% 30.30 in 10.0 mi East 3.5 mph - N/A   Clear
7:53 PM 53.6 °F 35.6 °F 51% 30.30 in 10.0 mi ENE 3.5 mph - N/A   Clear
8:13 PM 53.6 °F 35.6 °F 51% 30.30 in 10.0 mi East 3.5 mph - N/A   Clear
8:33 PM 53.6 °F 37.4 °F 54% 30.30 in 10.0 mi East 3.5 mph - N/A   Clear
8:53 PM 51.8 °F 39.2 °F 62% 30.30 in 10.0 mi East 3.5 mph - N/A   Clear
9:13 PM 51.8 °F 37.4 °F 58% 30.30 in 10.0 mi East 3.5 mph - N/A   Clear
9:34 PM 51.8 °F 35.6 °F 54% 30.30 in 10.0 mi East 4.6 mph - N/A   Clear
9:53 PM 51.8 °F 35.6 °F 54% 30.30 in 10.0 mi East 3.5 mph - N/A   Clear
10:13 PM 51.8 °F 39.2 °F 62% 30.31 in 10.0 mi East 3.5 mph - N/A   Clear
10:33 PM 51.8 °F 39.2 °F 62% 30.31 in 10.0 mi East 3.5 mph - N/A   Clear
10:53 PM 51.8 °F 37.4 °F 58% 30.31 in 10.0 mi East 3.5 mph - N/A   Clear
11:13 PM 51.8 °F 39.2 °F 62% 30.31 in 10.0 mi Calm Calm - N/A   Clear
11:33 PM 51.8 °F 41.0 °F 67% 30.32 in 10.0 mi East 3.5 mph - N/A   Clear
11:53 PM 51.8 °F 37.4 °F 58% 30.32 in 10.0 mi East 3.5 mph - N/A   Clear